GW0263 Weather Reports


Display with metric or nautical units.
time (UTC)temp
F
wind
direction
speed
MPH
gust
MPH
rain 1hr
in
rain 24hr
in
rain mn
in
humidity
%
barometer
mb
20260906090055 68 0 0.0 0.0 0.00 0.00 0.00 89 1015.7
20260906084539 68 0 0.0 0.0 0.00 0.00 0.00 89 1015.8
20260906083039 68 0 0.0 0.0 0.00 0.00 0.00 89 1015.8
20260906081539 68 0 0.0 0.0 0.00 0.00 0.00 89 1015.7
20260906080039 68 0 0.0 0.0 0.00 0.00 0.00 89 1015.7
20260906074536 68 0 0.0 0.0 0.00 0.00 0.00 89 1015.7
20260906073054 68 0 0.0 0.0 0.00 0.00 0.00 89 1015.6
20260906071538 68 0 0.0 0.0 0.00 0.00 0.00 89 1015.7
20260906070039 68 0 0.0 0.0 0.00 0.00 0.00 89 1015.7
20260906064536 68 0 0.0 0.0 0.00 0.00 0.00 89 1015.8
20260906063046 69 0 0.0 0.0 0.00 0.00 0.00 89 1016.0
20260906061538 69 0 0.0 0.0 0.00 0.00 0.00 89 1016.2
20260906060037 69 0 0.0 0.0 0.00 0.00 0.00 89 1016.5
20260906054541 69 0 0.0 0.0 0.00 0.00 0.00 89 1016.7
20260906053038 69 0 0.0 0.0 0.00 0.00 0.00 89 1016.9
20260906051552 69 0 0.0 0.0 0.00 0.00 0.00 89 1017.0
20260906050046 69 0 0.0 0.0 0.00 0.00 0.00 89 1017.2
20260906044546 70 0 0.0 0.0 0.00 0.00 0.00 90 1017.2
20260906043046 70 0 0.0 0.0 0.00 0.00 0.00 89 1017.0
20260906041536 70 0 0.0 0.0 0.00 0.00 0.00 89 1017.1
20260906040040 70 0 0.0 0.0 0.00 0.00 0.00 89 1017.1
20260906034540 70 0 0.0 0.0 0.00 0.00 0.00 90 1017.2
20260906033036 70 0 0.0 0.0 0.00 0.00 0.00 90 1017.1
20260906031542 71 0 0.0 0.0 0.00 0.00 0.00 90 1017.0
20260906030036 71 0 0.0 0.0 0.00 0.00 0.00 90 1017.3
20260906024535 71 0 0.0 0.0 0.00 0.00 0.00 89 1017.1
20260906023037 71 0 0.0 0.0 0.00 0.00 0.00 89 1017.1
20260906021538 72 0 0.0 0.0 0.00 0.00 0.00 89 1017.4
20260906020038 72 0 0.0 0.0 0.00 0.00 0.00 89 1017.4
20260906014535 72 0 0.0 0.0 0.00 0.00 0.00 89 1017.2
20260906013057 73 0 0.0 0.0 0.00 0.00 0.00 88 1016.7
20260906011544 73 0 0.0 0.0 0.00 0.00 0.00 88 1016.7
20260906010039 74 0 0.0 0.0 0.00 0.00 0.00 87 1016.7
20260906004540 75 0 0.0 0.0 0.00 0.00 0.00 86 1016.5
20260906003038 75 0 0.0 0.0 0.00 0.00 0.00 86 1016.1
20260906001538 76 0 0.0 0.0 0.00 0.00 0.00 85 1016.0
20260906000044 76 0 0.0 0.0 0.00 0.00 0.00 83 1015.9
20260905234540 77 0 0.0 0.0 0.00 0.00 0.00 83 1016.0
20260905233043 77 0 0.0 0.0 0.00 0.00 0.00 85 1016.2
20260905231537 78 0 0.0 0.0 0.00 0.00 0.00 85 1016.0
20260905230042 78 0 0.0 0.0 0.00 0.00 0.00 84 1015.9
20260905224535 78 0 0.0 0.0 0.00 0.00 0.00 83 1015.7
20260905223042 78 0 0.0 0.0 0.00 0.00 0.00 82 1015.7
20260905221539 79 0 0.0 0.0 0.00 0.00 0.00 82 1016.0
20260905220039 79 0 0.0 0.0 0.00 0.00 0.00 81 1016.1
20260905214536 79 0 0.0 0.0 0.00 0.00 0.00 81 1016.2
20260905213041 79 0 0.0 0.0 0.00 0.00 0.00 81 1015.9
20260905211539 79 0 0.0 0.0 0.00 0.00 0.00 79 1015.9
20260905210047 80 0 0.0 0.0 0.00 0.00 0.00 77 1016.1
20260905204536 80 0 0.0 0.0 0.00 0.00 0.00 75 1016.4
20260905203051 80 0 0.0 0.0 0.00 0.00 0.00 75 1016.8
20260905201539 80 0 0.0 0.0 0.00 0.00 0.00 75 1016.6
20260905200039 80 0 0.0 0.0 0.00 0.00 0.00 80 1016.6
20260905194539 80 0 0.0 0.0 0.00 0.00 0.00 76 1017.4
20260905193037 81 0 0.0 0.0 0.00 0.00 0.00 74 1017.6
20260905191542 82 0 0.0 0.0 0.00 0.00 0.00 74 1017.6
20260905190040 85 0 0.0 0.0 0.00 0.00 0.00 74 1017.2
20260905184546 89 0 0.0 0.0 0.00 0.00 0.00 69 1016.7
20260905183040 90 0 0.0 0.0 0.00 0.00 0.00 62 1016.6
20260905181535 92 0 0.0 0.0 0.00 0.00 0.00 57 1016.7
20260905180041 93 0 0.0 0.0 0.00 0.00 0.00 58 1016.9
20260905174539 95 0 0.0 0.0 0.00 0.00 0.00 54 1017.1
20260905173039 95 0 0.0 0.0 0.00 0.00 0.00 51 1017.2
20260905171550 94 0 0.0 0.0 0.00 0.00 0.00 52 1017.2
20260905170038 94 0 0.0 0.0 0.00 0.00 0.00 57 1017.4
20260905164543 94 0 0.0 0.0 0.00 0.00 0.00 58 1017.7
20260905163044 93 0 0.0 0.0 0.00 0.00 0.00 55 1017.9
20260905161538 93 0 0.0 0.0 0.00 0.00 0.00 60 1018.1
20260905160036 92 0 0.0 0.0 0.00 0.00 0.00 61 1018.1
20260905154544 90 0 0.0 0.0 0.00 0.00 0.00 65 1018.3
20260905153037 89 0 0.0 0.0 0.00 0.00 0.00 65 1018.3
20260905151540 87 0 0.0 0.0 0.00 0.00 0.00 68 1018.4
20260905150042 85 0 0.0 0.0 0.00 0.00 0.00 72 1018.4
20260905144539 83 0 0.0 0.0 0.00 0.00 0.00 78 1018.3
20260905143035 80 0 0.0 0.0 0.00 0.00 0.00 83 1018.3
20260905141538 77 0 0.0 0.0 0.00 0.00 0.00 88 1018.4
20260905140035 75 0 0.0 0.0 0.00 0.00 0.00 90 1018.7
20260905134537 74 0 0.0 0.0 0.00 0.00 0.00 89 1018.9
20260905133035 73 0 0.0 0.0 0.00 0.00 0.00 87 1019.1
20260905131539 72 0 0.0 0.0 0.00 0.00 0.00 86 1019.0
20260905130040 72 0 0.0 0.0 0.00 0.00 0.00 86 1018.9
20260905124536 71 0 0.0 0.0 0.00 0.00 0.00 86 1018.8
20260905123039 70 0 0.0 0.0 0.00 0.00 0.00 87 1018.8
20260905121538 70 0 0.0 0.0 0.00 0.00 0.00 88 1018.6
20260905120048 70 0 0.0 0.0 0.00 0.00 0.00 88 1018.6
20260905114536 70 0 0.0 0.0 0.00 0.00 0.00 88 1018.5
20260905113037 70 0 0.0 0.0 0.00 0.00 0.00 88 1018.0
20260905111536 70 0 0.0 0.0 0.00 0.00 0.00 89 1017.9
20260905110036 70 0 0.0 0.0 0.00 0.00 0.00 89 1017.7
20260905104550 70 0 0.0 0.0 0.00 0.00 0.00 89 1017.8
20260905103040 70 0 0.0 0.0 0.00 0.00 0.00 89 1017.7
20260905101545 70 0 0.0 0.0 0.00 0.00 0.00 89 1017.6
20260905100042 70 0 0.0 0.0 0.00 0.00 0.00 88 1017.7
20260905094624 70 0 0.0 0.0 0.00 0.00 0.00 87 1017.5
20260905093037 70 0 0.0 0.0 0.00 0.00 0.00 87 1017.6
20260905091535 70 0 0.0 0.0 0.00 0.00 0.00 87 1017.5